Regional Weather Roundup
Issued by NWS

Home | Current Version | Previous Version | Graphics & Text | Print | Product List | Glossary On
Versions: 1 2 3 4 5 6 7 8 9 10 11 12 13 14 15 16 17 18 19 20 21 22 23 24 25 26 27 28 29 30 31 32 33 34 35 36 37 38 39 40 41 42 43 44 45 46 47 48 49 50
000
ASUS45 KCYS 010010
RWRWY

WYOMING REGIONAL WEATHER ROUNDUP
NATIONAL WEATHER SERVICE CHEYENNE WY
600 PM MDT TUE SEP 30 2014

NOTE:  "FAIR" INDICATES FEW OR NO CLOUDS BELOW 12,000 FEET
WITH NO SIGNIFICANT WEATHER AND/OR OBSTRUCTIONS TO VISIBILITY.

WYZ001-010100-
YELLOWSTONE NATIONAL PARK

CITY           SKY/WX    TMP DP  RH WIND       PRES   REMARKS
LK YELLOWSTONE   N/A     40  37  89 CALM      29.91S
6HR MIN TEMP:  40; 6HR MAX TEMP:  44; 6HR PCP:  0.02;

W YELLOWSTONE  NOT AVBL

$$
WYZ002>013-054>058-071-098>099-010100-
NORTHERN WYOMING

CITY           SKY/WX    TMP DP  RH WIND       PRES   REMARKS
JACKSON        PTSUNNY   46  45  93 S9        29.89R
CODY           CLOUDY    55  45  67 N10       29.76R
GREYBULL       CLOUDY    58  46  64 NE9       29.72R
6HR MIN TEMP:  57; 6HR MAX TEMP:  63; 6HR PCP: TRACE;

WORLAND        MOCLDY    61  41  47 E3        29.71S
6HR MIN TEMP:  56; 6HR MAX TEMP:  64;

SHERIDAN       MOCLDY    58  42  55 NW16G26   29.70R
6HR MIN TEMP:  58; 6HR MAX TEMP:  64;

BUFFALO        MOCLDY    54  42  64 N12       29.73R
6HR MIN TEMP:  54; 6HR MAX TEMP:  61; 6HR PCP: TRACE;

GILLETTE       CLOUDY    56  45  66 NW8       29.69R
6HR MIN TEMP:  53; 6HR MAX TEMP:  60;

HULETT         RAIN      54  46  76 W7G23     29.67
NEWCASTLE      FAIR      55  43  62 NW9       29.69

$$
WYZ014>020-022>026-101>103-010100-
CENTRAL WYOMING

CITY           SKY/WX    TMP DP  RH WIND       PRES   REMARKS
BIG PINEY      CLOUDY    49  37  63 NW12      29.93R
6HR MIN TEMP:  46; 6HR MAX TEMP:  52; 6HR PCP: TRACE;

PINEDALE       MOCLDY    45  39  81 W6        29.93S
DUBOIS         CLOUDY    46  34  61 N21       29.85R
LANDER         MOCLDY    60  37  42 CALM      29.76R
6HR MIN TEMP:  57; 6HR MAX TEMP:  65;

RIVERTON       MOCLDY    60  35  39 NW16      29.77R
6HR MIN TEMP:  56; 6HR MAX TEMP:  63; 6HR PCP: TRACE;

CASPER         CLOUDY    60  35  39 W13       29.75S
6HR MIN TEMP:  60; 6HR MAX TEMP:  66;

DOUGLAS        CLOUDY    57  40  52 W10       29.75R
6HR MIN TEMP:  55; 6HR MAX TEMP:  66; 6HR PCP: TRACE;


$$
WYZ021-027>030-104>119-010100-
SOUTHERN WYOMING

CITY           SKY/WX    TMP DP  RH WIND       PRES   REMARKS
EVANSTON       LGT RAIN  41  37  86 NW13      30.00S
6HR MIN TEMP:  41; 6HR MAX TEMP:  51; 6HR PCP: TRACE;

KEMMERER       DRIZZLE   39  37  93 W14       30.00R WCI  31
FORT BRIDGER     N/A     45  41  84 NW22G38   30.02R
ROCK SPRINGS   PTSUNNY   50  38  63 W23G31    29.93R
6HR MIN TEMP:  46; 6HR MAX TEMP:  54; 6HR PCP: TRACE;

DIXON          CLOUDY    45  42  89 W3        29.97S
RAWLINS        MOCLDY    44  40  85 W20       29.89S
6HR MIN TEMP:  43; 6HR MAX TEMP:  53; 6HR PCP:  0.06;

SARATOGA       RAIN      45  39  81 W28G35    29.95R
LARAMIE        CLOUDY    47  35  63 W15       29.88R
6HR MIN TEMP:  47; 6HR MAX TEMP:  51;

CHEYENNE       CLOUDY    55  37  50 SW10      29.84S
6HR MIN TEMP:  55; 6HR MAX TEMP:  63;

TORRINGTON     MOCLDY    62  42  47 W14G23    29.71R
6HR MIN TEMP:  62; 6HR MAX TEMP:  68;

PINE BLUFFS    FAIR      59  37  44 W8        29.81S

$$



USA.gov is the U.S. government's official web portal to all federal, state and local government web resources and services.